Location: Newark
(43.0000°N, 1.6781°W)
Time: 16:30:22
(UTC+00:00)

Tiros 1 - All Passes

Search period start: 07 October 2022 00:00
Search period end: 17 October 2022 00:00
Orbit: 629 x 663 km, 48.4° (Epoch: 07 October)

Date Brightness Start Highest point End Pass type
(mag) Time Alt. Az. Time Alt. Az. Time Alt. Az.
07 Oct - 01:32:24 10° WNW 01:37:04 47° N 01:41:40 10° E night (unlit)
07 Oct - 03:14:43 10° WNW 03:19:30 77° SSW 03:24:13 10° SE visible
07 Oct - 04:57:53 10° W 05:01:07 18° SW 05:04:18 10° S visible
07 Oct - 20:51:11 10° SSW 20:55:31 35° SE 20:59:53 10° ENE night (unlit)
07 Oct - 22:32:43 10° WSW 22:37:31 70° NNW 22:42:20 10° ENE night (unlit)
08 Oct - 00:15:35 10° WNW 00:20:11 43° N 00:24:46 10° ENE night (unlit)
08 Oct - 01:58:07 10° WNW 02:02:54 63° NNE 02:07:37 10° E night (unlit)
08 Oct - 03:40:31 10° WNW 03:44:59 41° SW 03:49:24 10° SSE visible
08 Oct - 19:36:40 10° SSE 19:39:26 15° SE 19:42:13 10° E visible
08 Oct - 21:16:12 10° SW 21:20:58 67° SSE 21:25:44 10° ENE night (unlit)
08 Oct - 22:58:39 10° W 23:03:20 50° NNW 23:08:01 10° ENE night (unlit)
09 Oct - 00:41:28 10° WNW 00:46:07 46° N 00:50:44 10° E night (unlit)
09 Oct - 02:23:47 10° WNW 02:28:35 82° SSW 02:33:21 10° ESE night (unlit)
09 Oct - 04:06:48 10° W 04:10:16 20° SW 04:13:41 10° S visible
09 Oct - 20:00:25 10° SSW 20:04:39 32° SE 20:08:54 10° ENE visible
09 Oct - 21:41:47 10° WSW 21:46:35 74° NNW 21:51:25 10° ENE night (unlit)
09 Oct - 23:24:38 10° WNW 23:29:14 43° N 23:33:49 10° ENE night (unlit)
10 Oct - 01:07:12 10° WNW 01:11:58 60° NNE 01:16:41 10° E night (unlit)
10 Oct - 02:49:33 10° WNW 02:54:06 44° SW 02:58:36 10° SE night (unlit)
10 Oct - 18:46:10 10° SSE 18:48:35 14° SE 18:51:00 10° E visible
10 Oct - 20:25:19 10° SW 20:30:03 62° SSE 20:34:49 10° ENE visible
10 Oct - 22:07:40 10° W 22:12:23 52° NNW 22:17:05 10° ENE night (unlit)
10 Oct - 23:50:31 10° WNW 23:55:09 45° N 23:59:46 10° E night (unlit)
11 Oct - 01:32:51 10° WNW 01:37:40 87° SSW 01:42:27 10° ESE night (unlit)
11 Oct - 03:15:44 10° W 03:19:24 22° SW 03:23:02 10° S night (unlit)
11 Oct - 19:09:38 10° SSW 19:13:45 29° SE 19:17:54 10° E visible
11 Oct - 20:50:51 10° WSW 20:55:39 78° NNW 21:00:29 10° ENE visible
11 Oct - 22:33:40 10° WNW 22:38:16 44° N 22:42:52 10° ENE night (unlit)
12 Oct - 00:16:16 10° WNW 00:21:01 58° NNE 00:25:44 10° E night (unlit)
12 Oct - 01:58:35 10° WNW 02:03:12 48° SW 02:07:46 10° SE night (unlit)
12 Oct - 17:55:46 10° SSE 17:57:43 12° SE 17:59:41 10° ESE visible
12 Oct - 19:34:26 10° SW 19:39:08 57° SSE 19:43:51 10° ENE visible
12 Oct - 21:16:42 10° W 21:21:25 53° NNW 21:26:08 10° ENE visible
12 Oct - 22:59:33 10° WNW 23:04:12 45° N 23:08:48 10° E night (unlit)
13 Oct - 00:41:54 10° WNW 00:46:44 88° NNE 00:51:32 10° ESE night (unlit)
13 Oct - 02:24:41 10° W 02:28:31 24° SW 02:32:20 10° S night (unlit)
13 Oct - 18:18:53 10° SSW 18:22:52 27° SE 18:26:53 10° E visible
13 Oct - 19:59:54 10° WSW 20:04:43 83° NNW 20:09:33 10° ENE visible
13 Oct - 21:42:41 10° WNW 21:47:17 44° N 21:51:55 10° ENE visible
13 Oct - 23:25:19 10° WNW 23:30:03 56° NNE 23:34:46 10° E night (unlit)
14 Oct - 01:07:37 10° WNW 01:12:17 52° SW 01:16:55 10° SE night (unlit)
14 Oct - 02:52:26 10° WSW 02:53:38 11° SW 02:54:51 10° SW night (unlit)
14 Oct - 17:05:33 10° SE 17:06:51 11° SE 17:08:09 10° ESE daylight
14 Oct - 18:43:35 10° SW 18:48:13 53° SE 18:52:53 10° ENE visible
14 Oct - 20:25:44 10° W 20:30:27 56° NNW 20:35:12 10° ENE visible
14 Oct - 22:08:35 10° WNW 22:13:12 44° N 22:17:49 10° ENE night (unlit)
14 Oct - 23:50:57 10° WNW 23:55:47 83° NNE 00:00:35 10° ESE night (unlit)
15 Oct - 01:33:38 10° W 01:37:38 26° SW 01:41:36 10° SSE night (unlit)
15 Oct - 17:28:09 10° S 17:31:58 24° SE 17:35:50 10° E daylight
15 Oct - 19:08:58 10° WSW 19:13:45 87° NNW 19:18:36 10° ENE visible
15 Oct - 20:51:42 10° W 20:56:18 45° N 21:00:56 10° ENE visible
15 Oct - 22:34:22 10° WNW 22:39:05 54° NNE 22:43:47 10° E night (unlit)
16 Oct - 00:16:38 10° WNW 00:21:22 57° SSW 00:26:02 10° SE night (unlit)
16 Oct - 02:00:51 10° WSW 02:02:46 12° SW 02:04:40 10° SSW night (unlit)
16 Oct - 17:52:42 10° SW 17:57:17 48° SE 18:01:55 10° ENE visible
16 Oct - 19:34:45 10° W 19:39:28 58° NNW 19:44:14 10° ENE visible
16 Oct - 21:17:37 10° WNW 21:22:13 44° N 21:26:50 10° ENE visible
16 Oct - 23:00:01 10° WNW 23:04:50 78° NNE 23:09:38 10° ESE night (unlit)
